,,Stat6,,Stat2,,Stat8,,Stat9,,Stat10,,Wind1,,Wind1,
time,status,PA1M_AVG,status,PR1M_SUM,status,RH1M_AVG,status,SR1M_AVG,status,TA1M_AVG,status,W1dAve1m,status,W1sAve1m,
2005-09-28, 00:00:00,VALID,918.738,VALID,0.2,VALID,100,VALID,-0.0169808,VALID,20.8556,VALID,351,VALID,0.38186,
2005-09-28, 00:01:00,VALID,918.738,VALID,0,VALID,99.973,VALID,-0.0339617,VALID,20.8074,VALID,355,VALID,0.478051,
2005-09-28, 00:02:00,VALID,918.716,VALID,0,VALID,99.9023,VALID,-0.101885,VALID,20.763,VALID,50,VALID,0.557351,
2005-09-28, 00:03:00,VALID,918.702,VALID,0,VALID,99.9827,VALID,-0.101885,VALID,20.7277,VALID,50,VALID,0.563045,
2005-09-28, 00:04:00,VALID,918.695,VALID,0,VALID,100,VALID,-0.118866,VALID,20.7118,VALID,50,VALID,0.683308,
2005-09-28, 00:05:00,VALID,918.687,VALID,0,VALID,100,VALID,-0.101885,VALID,20.6964,VALID,50,VALID,0.684956,
2005-09-28, 00:06:00,VALID,918.672,VALID,0,VALID,100,VALID,-0.118866,VALID,20.6636,VALID,50,VALID,0.59468,
2005-09-28, 00:07:00,VALID,918.67,VALID,0,VALID,100,VALID,-0.101885,VALID,20.6472,VALID,50,VALID,0.564862,
2005-09-28, 00:08:00,VALID,918.651,VALID,0,VALID,100,VALID,-0.101885,VALID,20.644,VALID,50,VALID,0.487216,
2005-09-28, 00:09:00,VALID,918.641,VALID,0,VALID,100,VALID,-0.101885,VALID,20.6434,VALID,50,VALID,0.367188,
2005-09-28, 00:10:00,VALID,918.627,VALID,0,VALID,100,VALID,-0.101885,VALID,20.6375,VALID,50,VALID,0.407099,
2005-09-28, 00:11:00,VALID,918.602,VALID,0,VALID,100,VALID,-0.0849042,VALID,20.631,VALID,50,VALID,0.525112,
2005-09-28, 00:12:00,VALID,918.579,VALID,0,VALID,100,VALID,-0.0679233,VALID,20.6375,VALID,50,VALID,0.304324,
2005-09-28, 00:13:00,VALID,918.558,VALID,0,VALID,100,VALID,-0.0679233,VALID,20.637,VALID,46,VALID,0.329985,
2005-09-28, 00:14:00,VALID,918.533,VALID,0,VALID,100,VALID,-0.101885,VALID,20.6663,VALID,45,VALID,0.319803,
2005-09-28, 00:15:00,VALID,918.519,VALID,0,VALID,100,VALID,-0.101885,VALID,20.7217,VALID,45,VALID,0.379084,
2005-09-28, 00:16:00,VALID,918.493,VALID,0,VALID,100,VALID,-0.0849042,VALID,20.7691,VALID,44,VALID,0.347656,
2005-09-28, 00:17:00,VALID,918.479,VALID,0,VALID,100,VALID,0.0169808,VALID,20.7858,VALID,29,VALID,0.283203,
2005-09-28, 00:18:00,VALID,918.453,VALID,0,VALID,100,VALID,0,VALID,20.785,VALID,29,VALID,0.253239,
2005-09-28, 00:19:00,VALID,918.428,VALID,0,VALID,100,VALID,0,VALID,20.7363,VALID,29,VALID,0.293555,
2005-09-28, 00:20:00,VALID,918.418,VALID,0,VALID,100,VALID,-0.0509425,VALID,20.7366,VALID,29,VALID,0,
2005-09-28, 00:21:00,VALID,918.397,VALID,0,VALID,100,VALID,0,VALID,20.753,VALID,29,VALID,0.134673,
2005-09-28, 00:22:00,VALID,918.383,VALID,0,VALID,100,VALID,0,VALID,20.7533,VALID,29,VALID,0.0268674,
2005-09-28, 00:23:00,VALID,918.364,VALID,0,VALID,100,VALID,0.0169808,VALID,20.7401,VALID,24,VALID,0.0456321,
2005-09-28, 00:24:00,VALID,918.35,VALID,0,VALID,100,VALID,-0.0169808,VALID,20.7366,VALID,22,VALID,0.0584077,
2005-09-28, 00:25:00,VALID,918.337,VALID,0,VALID,100,VALID,-0.0169808,VALID,20.7073,VALID,22,VALID,0.00177557,
2005-09-28, 00:26:00,VALID,918.319,VALID,0,VALID,100,VALID,-0.0169808,VALID,20.7307,VALID,22,VALID,0,
2005-09-28, 00:27:00,VALID,918.308,VALID,0,VALID,100,VALID,-0.0509425,VALID,20.7312,VALID,22,VALID,0.0383185,
2005-09-28, 00:28:00,VALID,918.304,VALID,0,VALID,100,VALID,-0.0509425,VALID,20.7371,VALID,22,VALID,0.122266,
2005-09-28, 00:29:00,VALID,918.309,VALID,0,VALID,100,VALID,-0.0169808,VALID,20.7436,VALID,22,VALID,0.13157,
2005-09-28, 00:30:00,VALID,918.289,VALID,0,VALID,100,VALID,0,VALID,20.7662,VALID,22,VALID,0.146763,
2005-09-28, 00:31:00,VALID,918.282,VALID,0,VALID,100,VALID,0,VALID,20.7662,VALID,22,VALID,0.00859375,
2005-09-28, 00:32:00,VALID,918.266,VALID,0,VALID,100,VALID,0,VALID,20.7694,VALID,22,VALID,0.177507,
2005-09-28, 00:33:00,VALID,918.255,VALID,0,VALID,100,VALID,-0.0169808,VALID,20.7533,VALID,22,VALID,0.420987,
2005-09-28, 00:34:00,VALID,918.228,VALID,0,VALID,100,VALID,0,VALID,20.7436,VALID,22,VALID,0.486111,
2005-09-28, 00:35:00,VALID,918.197,VALID,0,VALID,100,VALID,0,VALID,20.7334,VALID,22,VALID,0.445508,
2005-09-28, 00:36:00,VALID,918.164,VALID,0,VALID,100,VALID,-0.0169808,VALID,20.7301,VALID,22,VALID,0.376635,
2005-09-28, 00:37:00,VALID,918.133,VALID,0,VALID,100,VALID,0,VALID,20.7369,VALID,22,VALID,0.219105,
2005-09-28, 00:38:00,VALID,918.091,VALID,0,VALID,100,VALID,0,VALID,20.7565,VALID,22,VALID,0.00190549,
2005-09-28, 00:39:00,VALID,918.06,VALID,0,VALID,100,VALID,0,VALID,20.7495,VALID,22,VALID,0,
2005-09-28, 00:40:00,VALID,918.028,VALID,0,VALID,100,VALID,-0.0169808,VALID,20.7568,VALID,22,VALID,0,
2005-09-28, 00:41:00,VALID,918.015,VALID,0,VALID,100,VALID,-0.0169808,VALID,20.7627,VALID,22,VALID,0,
2005-09-28, 00:42:00,VALID,918.002,VALID,0,VALID,100,VALID,0,VALID,20.7883,VALID,22,VALID,0,
2005-09-28, 00:43:00,VALID,918.016,VALID,0,VALID,100,VALID,0,VALID,20.8039,VALID,22,VALID,0,
2005-09-28, 00:44:00,VALID,918.023,VALID,0,VALID,100,VALID,0,VALID,20.8278,VALID,22,VALID,0,
2005-09-28, 00:45:00,VALID,918.025,VALID,0,VALID,100,VALID,-0.0169808,VALID,20.8079,VALID,22,VALID,0.00408381,
2005-09-28, 00:46:00,VALID,918.026,VALID,0,VALID,100,VALID,-0.0169808,VALID,20.798,VALID,28,VALID,0.191584,
2005-09-28, 00:47:00,VALID,918.004,VALID,0,VALID,100,VALID,-0.0169808,VALID,20.7952,VALID,64,VALID,0.464748,
2005-09-28, 00:48:00,VALID,918.003,VALID,0,VALID,100,VALID,0.0169808,VALID,20.746,VALID,79,VALID,0.496189,
2005-09-28, 00:49:00,VALID,917.989,VALID,0,VALID,100,VALID,-0.0339617,VALID,20.7177,VALID,97,VALID,0.249637,
2005-09-28, 00:50:00,VALID,917.977,VALID,0,VALID,100,VALID,0,VALID,20.7016,VALID,97,VALID,0.200195,
2005-09-28, 00:51:00,VALID,917.963,VALID,0,VALID,100,VALID,0,VALID,20.6887,VALID,103,VALID,0.583939,
2005-09-28, 00:52:00,VALID,917.955,VALID,0,VALID,100,VALID,0,VALID,20.6653,VALID,103,VALID,0.411859,
2005-09-28, 00:53:00,VALID,917.95,VALID,0,VALID,100,VALID,-0.0169808,VALID,20.6561,VALID,103,VALID,0.31715,
2005-09-28, 00:54:00,VALID,917.921,VALID,0,VALID,100,VALID,-0.0169808,VALID,20.6728,VALID,103,VALID,0.0330256,
2005-09-28, 00:55:00,VALID,917.898,VALID,0,VALID,100,VALID,0,VALID,20.6854,VALID,103,VALID,0.185213,
2005-09-28, 00:56:00,VALID,917.872,VALID,0,VALID,100,VALID,0,VALID,20.6825,VALID,103,VALID,0.194293,
2005-09-28, 00:57:00,VALID,917.861,VALID,0,VALID,100,VALID,-0.0169808,VALID,20.6723,VALID,103,VALID,0.219122,
2005-09-28, 00:58:00,VALID,917.866,VALID,0,VALID,100,VALID,-0.0339617,VALID,20.6916,VALID,103,VALID,0,
2005-09-28, 00:59:00,VALID,917.858,VALID,0,VALID,100,VALID,0,VALID,20.6887,VALID,103,VALID,0,
2005-09-28, 01:00:00,VALID,917.857,VALID,0,VALID,100,VALID,-0.0339617,VALID,20.718,VALID,103,VALID,0.12827,
2005-09-28, 01:01:00,VALID,917.87,VALID,0,VALID,100,VALID,-0.0169808,VALID,20.7177,VALID,103,VALID,0.245486,
2005-09-28, 01:02:00,VALID,917.854,VALID,0,VALID,100,VALID,-0.0169808,VALID,20.7142,VALID,103,VALID,0.0104167,
2005-09-28, 01:03:00,VALID,917.844,VALID,0,VALID,100,VALID,0,VALID,20.7506,VALID,103,VALID,0,
2005-09-28, 01:04:00,VALID,917.841,VALID,0,VALID,100,VALID,-0.0169808,VALID,20.7662,VALID,102,VALID,0.139648,
2005-09-28, 01:05:00,VALID,917.847,VALID,0,VALID,100,VALID,0,VALID,20.8022,VALID,101,VALID,0.474432,
2005-09-28, 01:06:00,VALID,917.846,VALID,0,VALID,100,VALID,0,VALID,20.802,VALID,101,VALID,0.389881,
2005-09-28, 01:07:00,VALID,917.856,VALID,0,VALID,100,VALID,0,VALID,20.7856,VALID,101,VALID,0.207889,
2005-09-28, 01:08:00,VALID,917.874,VALID,0,VALID,100,VALID,0,VALID,20.7796,VALID,101,VALID,0.0979421,
2005-09-28, 01:09:00,VALID,917.878,VALID,0,VALID,100,VALID,-0.0339617,VALID,20.753,VALID,101,VALID,0,
2005-09-28, 01:10:00,VALID,917.862,VALID,0,VALID,100,VALID,-0.0169808,VALID,20.7595,VALID,101,VALID,0.0538862,
2005-09-28, 01:11:00,VALID,917.866,VALID,0,VALID,100,VALID,-0.0169808,VALID,20.7826,VALID,101,VALID,0.084375,
2005-09-28, 01:12:00,VALID,917.849,VALID,0,VALID,100,VALID,-0.0509425,VALID,20.746,VALID,101,VALID,0.227805,
2005-09-28, 01:13:00,VALID,917.838,VALID,0,VALID,100,VALID,-0.0169808,VALID,20.7401,VALID,91,VALID,0.470703,
2005-09-28, 01:14:00,VALID,917.824,VALID,0,VALID,100,VALID,0,VALID,20.756,VALID,23,VALID,0.597565,
2005-09-28, 01:15:00,VALID,917.81,VALID,0,VALID,100,VALID,0,VALID,20.756,VALID,22,VALID,0.528832,
2005-09-28, 01:16:00,VALID,917.797,VALID,0,VALID,100,VALID,0.0169808,VALID,20.7339,VALID,353,VALID,0.624818,
2005-09-28, 01:17:00,VALID,917.794,VALID,0,VALID,100,VALID,0.0679233,VALID,20.707,VALID,318,VALID,0.170967,
2005-09-28, 01:18:00,VALID,917.781,VALID,0,VALID,100,VALID,0.0509425,VALID,20.7038,VALID,315,VALID,0,
2005-09-28, 01:19:00,VALID,917.771,VALID,0,VALID,100,VALID,0.0509425,VALID,20.6911,VALID,315,VALID,0.0575945,
2005-09-28, 01:20:00,VALID,917.763,VALID,0,VALID,100,VALID,0.0509425,VALID,20.717,VALID,315,VALID,0.0139509,
2005-09-28, 01:21:00,VALID,917.755,VALID,0,VALID,100,VALID,0.0679233,VALID,20.7159,VALID,315,VALID,0.000585938,
2005-09-28, 01:22:00,VALID,917.744,VALID,0,VALID,100,VALID,0.0849042,VALID,20.745,VALID,355,VALID,0.559622,
2005-09-28, 01:23:00,VALID,917.731,VALID,0,VALID,100,VALID,0.0679233,VALID,20.7554,VALID,17,VALID,0.905401,
2005-09-28, 01:24:00,VALID,917.728,VALID,0,VALID,100,VALID,0.0509425,VALID,20.7003,VALID,355,VALID,0.774771,
2005-09-28, 01:25:00,VALID,917.739,VALID,0,VALID,100,VALID,0.0509425,VALID,20.6682,VALID,350,VALID,0.372093,
2005-09-28, 01:26:00,VALID,917.766,VALID,0,VALID,100,VALID,0.0849042,VALID,20.6317,VALID,17,VALID,0.522222,
2005-09-28, 01:27:00,VALID,917.78,VALID,0,VALID,100,VALID,0.0509425,VALID,20.633,VALID,27,VALID,0.761161,
2005-09-28, 01:28:00,VALID,917.796,VALID,0,VALID,100,VALID,0,VALID,20.6004,VALID,28,VALID,0.672991,
2005-09-28, 01:29:00,VALID,917.809,VALID,0,VALID,100,VALID,0.0339617,VALID,20.5552,VALID,24,VALID,1.3185,
2005-09-28, 01:30:00,VALID,917.813,VALID,0,VALID,100,VALID,0.0509425,VALID,20.5227,VALID,2,VALID,1.06889,
2005-09-28, 01:31:00,VALID,917.812,VALID,0,VALID,100,VALID,0.0339617,VALID,20.4876,VALID,7,VALID,0.859747,
2005-09-28, 01:32:00,VALID,917.802,VALID,0,VALID,100,VALID,0.0849042,VALID,20.4389,VALID,9,VALID,1.10213,
2005-09-28, 01:33:00,VALID,917.816,VALID,0,VALID,100,VALID,0.0509425,VALID,20.3833,VALID,350,VALID,0.992374,
2005-09-28, 01:34:00,VALID,917.821,VALID,0,VALID,100,VALID,0.0339617,VALID,20.3383,VALID,355,VALID,1.13002,
2005-09-28, 01:35:00,VALID,917.821,VALID,0,VALID,100,VALID,0.0509425,VALID,20.3259,VALID,360,VALID,0.951389,
2005-09-28, 01:36:00,VALID,917.838,VALID,0,VALID,100,VALID,0.0679233,VALID,20.2904,VALID,12,VALID,1.23828,
2005-09-28, 01:37:00,VALID,917.858,VALID,0,VALID,100,VALID,0.0849042,VALID,20.2516,VALID,28,VALID,1.20642,
2005-09-28, 01:38:00,VALID,917.853,VALID,0,VALID,100,VALID,0.0509425,VALID,20.2288,VALID,24,VALID,1.15365,
2005-09-28, 01:39:00,VALID,917.865,VALID,0,VALID,100,VALID,0.0509425,VALID,20.1838,VALID,19,VALID,0.980824,
2005-09-28, 01:40:00,VALID,917.861,VALID,0,VALID,100,VALID,0.0339617,VALID,20.1674,VALID,14,VALID,1.35423,
2005-09-28, 01:41:00,VALID,917.851,VALID,0,VALID,100,VALID,0.0339617,VALID,20.1287,VALID,9,VALID,1.07701,
2005-09-28, 01:42:00,VALID,917.826,VALID,0,VALID,100,VALID,0.0509425,VALID,20.1354,VALID,360,VALID,1.0277,
2005-09-28, 01:43:00,VALID,917.811,VALID,0,VALID,100,VALID,0.0169808,VALID,20.1128,VALID,348,VALID,0.86756,
2005-09-28, 01:44:00,VALID,917.793,VALID,0,VALID,100,VALID,0.0169808,VALID,20.0934,VALID,344,VALID,0.757068,
2005-09-28, 01:45:00,VALID,917.773,VALID,0,VALID,100,VALID,0.0339617,VALID,20.1098,VALID,347,VALID,0.53995,
2005-09-28, 01:46:00,VALID,917.755,VALID,0,VALID,100,VALID,0.0509425,VALID,20.1187,VALID,351,VALID,0.877003,
2005-09-28, 01:47:00,VALID,917.751,VALID,0,VALID,100,VALID,0.0509425,VALID,20.119,VALID,352,VALID,0.902616,
2005-09-28, 01:48:00,VALID,917.755,VALID,0,VALID,100,VALID,0.0849042,VALID,20.1583,VALID,360,VALID,0.55191,
2005-09-28, 01:49:00,VALID,917.766,VALID,0,VALID,100,VALID,0.0509425,VALID,20.1838,VALID,10,VALID,0.796113,
2005-09-28, 01:50:00,VALID,917.765,VALID,0,VALID,100,VALID,0.0509425,VALID,20.2129,VALID,9,VALID,0.464571,
2005-09-28, 01:51:00,VALID,917.784,VALID,0,VALID,100,VALID,0.0849042,VALID,20.2516,VALID,9,VALID,0.521662,
2005-09-28, 01:52:00,VALID,917.801,VALID,0,VALID,100,VALID,0.0509425,VALID,20.2777,VALID,11,VALID,0.500372,
2005-09-28, 01:53:00,VALID,917.8,VALID,0,VALID,100,VALID,0,VALID,20.3264,VALID,12,VALID,0.280007,
2005-09-28, 01:54:00,VALID,917.816,VALID,0,VALID,100,VALID,0.0169808,VALID,20.362,VALID,12,VALID,0.090554,
2005-09-28, 01:55:00,VALID,917.826,VALID,0,VALID,100,VALID,0.0169808,VALID,20.4209,VALID,12,VALID,0.192406,
2005-09-28, 01:56:00,VALID,917.854,VALID,0,VALID,100,VALID,0,VALID,20.4268,VALID,17,VALID,0.0397892,
2005-09-28, 01:57:00,VALID,917.86,VALID,0,VALID,100,VALID,0,VALID,20.4303,VALID,24,VALID,0.207541,
2005-09-28, 01:58:00,VALID,917.874,VALID,0,VALID,100,VALID,0,VALID,20.447,VALID,24,VALID,0.252544,
2005-09-28, 01:59:00,VALID,917.867,VALID,0,VALID,100,VALID,0,VALID,20.4424,VALID,24,VALID,0,
2005-09-28, 02:00:00,VALID,917.851,VALID,0,VALID,100,VALID,0,VALID,20.426,VALID,24,VALID,0.0411585,
2005-09-28, 02:01:00,VALID,917.842,VALID,0,VALID,100,VALID,0,VALID,20.43,VALID,24,VALID,0.000195313,
2005-09-28, 02:02:00,VALID,917.822,VALID,0,VALID,100,VALID,-0.0679233,VALID,20.4254,VALID,326,VALID,0.306641,
2005-09-28, 02:03:00,VALID,917.835,VALID,0,VALID,100,VALID,-0.101885,VALID,20.3858,VALID,307,VALID,0.099564,
2005-09-28, 02:04:00,VALID,917.824,VALID,0,VALID,100,VALID,-0.101885,VALID,20.3896,VALID,307,VALID,0.0352515,
2005-09-28, 02:05:00,VALID,917.826,VALID,0,VALID,100,VALID,-0.101885,VALID,20.3923,VALID,307,VALID,0,
2005-09-28, 02:06:00,VALID,917.824,VALID,0,VALID,100,VALID,-0.0849042,VALID,20.4219,VALID,307,VALID,0,
2005-09-28, 02:07:00,VALID,917.812,VALID,0,VALID,100,VALID,-0.0849042,VALID,20.4214,VALID,307,VALID,0,
2005-09-28, 02:08:00,VALID,917.804,VALID,0,VALID,100,VALID,-0.0849042,VALID,20.4311,VALID,307,VALID,0.015625,
2005-09-28, 02:09:00,VALID,917.782,VALID,0,VALID,100,VALID,-0.101885,VALID,20.4539,VALID,307,VALID,0.0488735,
2005-09-28, 02:10:00,VALID,917.774,VALID,0,VALID,100,VALID,-0.0849042,VALID,20.4741,VALID,307,VALID,0.0243459,
2005-09-28, 02:11:00,VALID,917.767,VALID,0,VALID,100,VALID,-0.101885,VALID,20.4964,VALID,307,VALID,0,
2005-09-28, 02:12:00,VALID,917.766,VALID,0,VALID,100,VALID,-0.101885,VALID,20.5021,VALID,307,VALID,0.00090843,
2005-09-28, 02:13:00,VALID,917.755,VALID,0,VALID,100,VALID,-0.0849042,VALID,20.522,VALID,307,VALID,0,
2005-09-28, 02:14:00,VALID,917.77,VALID,0,VALID,100,VALID,-0.0849042,VALID,20.5247,VALID,334,VALID,0.318266,
2005-09-28, 02:15:00,VALID,917.788,VALID,0,VALID,100,VALID,-0.101885,VALID,20.5382,VALID,13,VALID,0.48383,
2005-09-28, 02:16:00,VALID,917.806,VALID,0,VALID,100,VALID,-0.0849042,VALID,20.5352,VALID,20,VALID,0.463542,
2005-09-28, 02:17:00,VALID,917.816,VALID,0,VALID,100,VALID,-0.118866,VALID,20.5128,VALID,22,VALID,0.691964,
2005-09-28, 02:18:00,VALID,917.829,VALID,0,VALID,100,VALID,-0.101885,VALID,20.483,VALID,28,VALID,0.873197,
2005-09-28, 02:19:00,VALID,917.824,VALID,0,VALID,100,VALID,-0.0849042,VALID,20.4472,VALID,29,VALID,1.07241,
2005-09-28, 02:20:00,VALID,917.821,VALID,0,VALID,100,VALID,-0.101885,VALID,20.4249,VALID,39,VALID,1.24182,
2005-09-28, 02:21:00,VALID,917.816,VALID,0,VALID,100,VALID,-0.0509425,VALID,20.3988,VALID,29,VALID,1.31914,
2005-09-28, 02:22:00,VALID,917.818,VALID,0,VALID,100,VALID,-0.0849042,VALID,20.36,VALID,28,VALID,1.30929,
2005-09-28, 02:23:00,VALID,917.822,VALID,0,VALID,100,VALID,-0.101885,VALID,20.3411,VALID,39,VALID,1.31922,
2005-09-28, 02:24:00,VALID,917.826,VALID,0,VALID,100,VALID,-0.0679233,VALID,20.3081,VALID,31,VALID,0.874809,
2005-09-28, 02:25:00,VALID,917.818,VALID,0,VALID,100,VALID,-0.0509425,VALID,20.3247,VALID,27,VALID,0.760099,
2005-09-28, 02:26:00,VALID,917.817,VALID,0,VALID,100,VALID,-0.0849042,VALID,20.325,VALID,6,VALID,0.635901,
2005-09-28, 02:27:00,VALID,917.824,VALID,0,VALID,100,VALID,-0.101885,VALID,20.3116,VALID,8,VALID,0.687682,
2005-09-28, 02:28:00,VALID,917.818,VALID,0,VALID,100,VALID,-0.101885,VALID,20.3048,VALID,10,VALID,0.550327,
2005-09-28, 02:29:00,VALID,917.833,VALID,0,VALID,100,VALID,-0.0679233,VALID,20.2795,VALID,333,VALID,0.726381,
2005-09-28, 02:30:00,VALID,917.824,VALID,0,VALID,99.9735,VALID,-0.0849042,VALID,20.2537,VALID,343,VALID,0.558866,
2005-09-28, 02:31:00,VALID,917.829,VALID,0,VALID,99.8947,VALID,-0.0679233,VALID,20.2147,VALID,346,VALID,0.518415,
2005-09-28, 02:32:00,VALID,917.821,VALID,0,VALID,99.882,VALID,-0.0679233,VALID,20.2025,VALID,346,VALID,0.566229,
2005-09-28, 02:33:00,VALID,917.811,VALID,0,VALID,99.9059,VALID,-0.0849042,VALID,20.1859,VALID,8,VALID,0.870276,
2005-09-28, 02:34:00,VALID,917.792,VALID,0,VALID,99.9916,VALID,-0.0679233,VALID,20.1856,VALID,18,VALID,1.04036,
2005-09-28, 02:35:00,VALID,917.78,VALID,0,VALID,99.5626,VALID,-0.0509425,VALID,20.1662,VALID,4,VALID,1.07571,
2005-09-28, 02:36:00,VALID,917.778,VALID,0,VALID,98.9423,VALID,-0.0849042,VALID,20.1888,VALID,338,VALID,0.618331,
2005-09-28, 02:37:00,VALID,917.783,VALID,0,VALID,98.4794,VALID,-0.0339617,VALID,20.2343,VALID,328,VALID,0.745384,
2005-09-28, 02:38:00,VALID,917.76,VALID,0,VALID,98.1819,VALID,-0.0849042,VALID,20.2534,VALID,343,VALID,0.626758,
2005-09-28, 02:39:00,VALID,917.752,VALID,0,VALID,98.2607,VALID,-0.0679233,VALID,20.293,VALID,6,VALID,0.545277,
2005-09-28, 02:40:00,VALID,917.751,VALID,0,VALID,98.6765,VALID,-0.0339617,VALID,20.3277,VALID,23,VALID,0.681734,
2005-09-28, 02:41:00,VALID,917.735,VALID,0,VALID,98.5926,VALID,-0.101885,VALID,20.3503,VALID,15,VALID,0.589844,
2005-09-28, 02:42:00,VALID,917.74,VALID,0,VALID,98.173,VALID,-0.0849042,VALID,20.3406,VALID,358,VALID,0.990513,
2005-09-28, 02:43:00,VALID,917.745,VALID,0,VALID,97.7203,VALID,-0.0509425,VALID,20.3275,VALID,11,VALID,0.58631,
2005-09-28, 02:44:00,VALID,917.76,VALID,0,VALID,97.5664,VALID,-0.0849042,VALID,20.3377,VALID,16,VALID,0.0740412,
2005-09-28, 02:45:00,VALID,917.761,VALID,0,VALID,97.5486,VALID,-0.0679233,VALID,20.3439,VALID,16,VALID,0,
2005-09-28, 02:46:00,VALID,917.765,VALID,0,VALID,97.335,VALID,0,VALID,20.353,VALID,9,VALID,0.330078,
2005-09-28, 02:47:00,VALID,917.763,VALID,0,VALID,97.0298,VALID,0,VALID,20.362,VALID,2,VALID,0.256624,
2005-09-28, 02:48:00,VALID,917.758,VALID,0,VALID,97.0171,VALID,0.0679233,VALID,20.3945,VALID,2,VALID,0.435902,
2005-09-28, 02:49:00,VALID,917.751,VALID,0,VALID,96.8073,VALID,0.101885,VALID,20.3873,VALID,2,VALID,0.602108,
2005-09-28, 02:50:00,VALID,917.746,VALID,0,VALID,97.0476,VALID,0.101885,VALID,20.3937,VALID,2,VALID,0.620276,
2005-09-28, 02:51:00,VALID,917.735,VALID,0,VALID,97.045,VALID,0.0849042,VALID,20.3975,VALID,351,VALID,0.850291,
2005-09-28, 02:52:00,VALID,917.745,VALID,0,VALID,96.8289,VALID,0.0679233,VALID,20.3518,VALID,336,VALID,0.927379,
2005-09-28, 02:53:00,VALID,917.745,VALID,0,VALID,97.0756,VALID,0.0509425,VALID,20.3391,VALID,355,VALID,0.83491,
2005-09-28, 02:54:00,VALID,917.743,VALID,0,VALID,97.2599,VALID,0.0509425,VALID,20.3326,VALID,15,VALID,0.879764,
2005-09-28, 02:55:00,VALID,917.75,VALID,0,VALID,97.2777,VALID,0.0169808,VALID,20.3259,VALID,17,VALID,1.18713,
2005-09-28, 02:56:00,VALID,917.762,VALID,0,VALID,97.2638,VALID,0.0169808,VALID,20.3393,VALID,13,VALID,1.10733,
2005-09-28, 02:57:00,VALID,917.765,VALID,0,VALID,96.8823,VALID,0.0339617,VALID,20.3167,VALID,3,VALID,0.941883,
2005-09-28, 02:58:00,VALID,917.771,VALID,0,VALID,97.0196,VALID,0,VALID,20.3304,VALID,17,VALID,0.969993,
2005-09-28, 02:59:00,VALID,917.756,VALID,0,VALID,97.1213,VALID,0.0169808,VALID,20.3073,VALID,15,VALID,0.87517,
2005-09-28, 03:00:00,VALID,917.74,VALID,0,VALID,97.4316,VALID,0,VALID,20.3105,VALID,19,VALID,0.653525,
2005-09-28, 03:01:00,VALID,917.743,VALID,0,VALID,97.5244,VALID,-0.0169808,VALID,20.2879,VALID,22,VALID,0.756445,
2005-09-28, 03:02:00,VALID,917.732,VALID,0,VALID,97.499,VALID,-0.101885,VALID,20.2636,VALID,8,VALID,1.04097,
2005-09-28, 03:03:00,VALID,917.729,VALID,0,VALID,97.5397,VALID,-0.101885,VALID,20.2408,VALID,8,VALID,0.79633,
2005-09-28, 03:04:00,VALID,917.71,VALID,0,VALID,97.5092,VALID,-0.0849042,VALID,20.2278,VALID,16,VALID,1.14808,
2005-09-28, 03:05:00,VALID,917.686,VALID,0,VALID,97.6274,VALID,-0.0849042,VALID,20.2318,VALID,23,VALID,1.04023,
2005-09-28, 03:06:00,VALID,917.676,VALID,0,VALID,97.5295,VALID,-0.0509425,VALID,20.2182,VALID,8,VALID,1.05573,
2005-09-28, 03:07:00,VALID,917.662,VALID,0,VALID,97.5995,VALID,-0.0849042,VALID,20.2246,VALID,23,VALID,0.748183,
2005-09-28, 03:08:00,VALID,917.637,VALID,0,VALID,97.3579,VALID,-0.0679233,VALID,20.2346,VALID,22,VALID,1.25428,
2005-09-28, 03:09:00,VALID,917.623,VALID,0,VALID,97.1862,VALID,-0.0679233,VALID,20.2413,VALID,24,VALID,1.09059,
2005-09-28, 03:10:00,VALID,917.607,VALID,0,VALID,97.1353,VALID,-0.0679233,VALID,20.2343,VALID,25,VALID,0.921354,
2005-09-28, 03:11:00,VALID,917.611,VALID,0,VALID,97.0921,VALID,-0.0849042,VALID,20.2378,VALID,17,VALID,0.71766,
2005-09-28, 03:12:00,VALID,917.607,VALID,0,VALID,97.1608,VALID,-0.101885,VALID,20.2246,VALID,14,VALID,0.636632,
2005-09-28, 03:13:00,VALID,917.613,VALID,0,VALID,97.4329,VALID,-0.101885,VALID,20.2316,VALID,13,VALID,0.529762,
2005-09-28, 03:14:00,VALID,917.607,VALID,0,VALID,97.1455,VALID,-0.101885,VALID,20.2286,VALID,21,VALID,0.904948,
2005-09-28, 03:15:00,VALID,917.596,VALID,0,VALID,96.9319,VALID,-0.101885,VALID,20.1926,VALID,14,VALID,0.924479,
2005-09-28, 03:16:00,VALID,917.585,VALID,0,VALID,97.0133,VALID,-0.0679233,VALID,20.2055,VALID,16,VALID,0.802269,
2005-09-28, 03:17:00,VALID,917.578,VALID,0,VALID,97.1366,VALID,0,VALID,20.1948,VALID,15,VALID,0.956659,
2005-09-28, 03:18:00,VALID,917.559,VALID,0,VALID,97.1264,VALID,-0.0169808,VALID,20.1849,VALID,12,VALID,1.10807,
2005-09-28, 03:19:00,VALID,917.561,VALID,0,VALID,97.1569,VALID,-0.0339617,VALID,20.1749,VALID,9,VALID,0.851199,
2005-09-28, 03:20:00,VALID,917.557,VALID,0,VALID,97.2447,VALID,-0.0339617,VALID,20.1784,VALID,2,VALID,0.704268,
2005-09-28, 03:21:00,VALID,917.56,VALID,0,VALID,97.3095,VALID,0,VALID,20.1528,VALID,352,VALID,0.693892,
2005-09-28, 03:22:00,VALID,917.572,VALID,0,VALID,97.5448,VALID,-0.0169808,VALID,20.1265,VALID,350,VALID,0.536701,
2005-09-28, 03:23:00,VALID,917.572,VALID,0,VALID,97.555,VALID,0,VALID,20.1205,VALID,6,VALID,0.924679,
2005-09-28, 03:24:00,VALID,917.554,VALID,0,VALID,97.6071,VALID,-0.0169808,VALID,20.1173,VALID,351,VALID,0.784201,
2005-09-28, 03:25:00,VALID,917.559,VALID,0,VALID,97.5092,VALID,-0.0339617,VALID,20.0947,VALID,352,VALID,0.813715,
2005-09-28, 03:26:00,VALID,917.549,VALID,0,VALID,97.602,VALID,-0.0339617,VALID,20.082,VALID,344,VALID,0.864025,
2005-09-28, 03:27:00,VALID,917.547,VALID,0,VALID,97.5486,VALID,-0.0169808,VALID,20.0691,VALID,323,VALID,1.05703,
2005-09-28, 03:28:00,VALID,917.527,VALID,0,VALID,97.499,VALID,-0.0169808,VALID,20.0455,VALID,339,VALID,0.945898,
2005-09-28, 03:29:00,VALID,917.517,VALID,0,VALID,97.8106,VALID,-0.0339617,VALID,20.0587,VALID,26,VALID,0.140451,
2005-09-28, 03:30:00,VALID,917.506,VALID,0,VALID,97.8551,VALID,-0.0169808,VALID,20.0589,VALID,300,VALID,0.351736,
2005-09-28, 03:31:00,VALID,917.504,VALID,0,VALID,97.8156,VALID,0,VALID,20.0688,VALID,296,VALID,0.545015,
2005-09-28, 03:32:00,VALID,917.487,VALID,0,VALID,97.7699,VALID,-0.0169808,VALID,20.0202,VALID,310,VALID,1.01344,
2005-09-28, 03:33:00,VALID,917.482,VALID,0,VALID,97.8195,VALID,0,VALID,20.0269,VALID,338,VALID,0.787202,
2005-09-28, 03:34:00,VALID,917.481,VALID,0,VALID,98.0394,VALID,0,VALID,20.0398,VALID,2,VALID,0.410352,
2005-09-28, 03:35:00,VALID,917.486,VALID,0,VALID,98.1628,VALID,0,VALID,20.043,VALID,347,VALID,0.531064,
2005-09-28, 03:36:00,VALID,917.483,VALID,0,VALID,98.3573,VALID,-0.0509425,VALID,20.0296,VALID,5,VALID,0.545508,
2005-09-28, 03:37:00,VALID,917.47,VALID,0,VALID,98.3256,VALID,0,VALID,20.0231,VALID,10,VALID,0.532885,
2005-09-28, 03:38:00,VALID,917.467,VALID,0,VALID,98.3268,VALID,-0.0509425,VALID,20.0236,VALID,16,VALID,0.833891,
2005-09-28, 03:39:00,VALID,917.47,VALID,0,VALID,98.2137,VALID,0,VALID,20.0298,VALID,11,VALID,0.79524,